Flag for Germany Weather past 2 weeks in Minden, North Rhine-Westphalia, Germany

Now
36 °F

Chilly.


Feels Like: 31 °F
Forecast: 29 / 36 °F
Wind: 6 mph from South

Location: Bueckeburg

Current Time: Dec 26, 2014 at 10:35:28 PM

Latest Report: Dec 26, 2014 at 9:20 PM


Visibility: 4 mi

Pressure: 30.21 "Hg

Humidity: 87%

Dew point: 32 °F

Location of MindenLocation

Historic Weather in Minden — Graph

°F

Minden temperature yesterday

Maximum temperature yesterday: 45 °F (at 1:20 PM)
Minimum temperature yesterday: 37 °F (at 8:20 PM)
Average temperature yesterday: 40 °F

Past Weeks' High & Low Weather Summary

 TemperatureHumidityPressure
High54 °F (Dec 18, 2:20 PM)100% (Dec 26, 9:20 AM)30.36 "Hg (Dec 26, 9:20 AM)
Low30 °F (Dec 26, 8:20 AM)61% (Dec 15, 8:20 AM)29.30 "Hg (Dec 12, 3:20 PM)
Average44 °F85%29.89 "Hg
* Reported Dec 11 9:20 PM — Dec 26 9:20 PM, Minden, Weather by CustomWeather, © 2014

Note: Actual official high and low records may vary slightly from our data, if they occured in-between our weather recording intervals... More about our weather records

Advertising

Minden weather history for previous 24 hours

 ConditionsComfort  
Time TempWeatherWind HumidityBarometerVisibility
9:20 PM
Dec 26
36 °FChilly.6 mph87%30.21 "Hg4 mi
8:20 PM34 °FChilly.2 mph87%30.24 "Hg5 mi
7:20 PM36 °FChilly.3 mph87%30.24 "Hg6 mi
6:20 PM36 °FChilly.2 mph87%30.27 "Hg5 mi
5:20 PM34 °FChilly.5 mph87%30.30 "Hg6 mi
4:20 PM34 °FChilly.5 mph81%30.30 "HgN/A
3:20 PM34 °FChilly.3 mph81%30.33 "HgN/A
2:20 PM36 °FChilly.5 mph81%30.33 "Hg6 mi
1:20 PM36 °FChilly.6 mph87%30.33 "Hg6 mi
12:20 PM32 °FChilly.3 mph100%30.36 "Hg2 mi
11:20 AM30 °FChilly.2 mph100%30.36 "Hg0 mi
10:20 AM30 °FChilly.1 mph100%30.36 "Hg0 mi
9:20 AM30 °FChilly.1 mph100%30.36 "Hg0 mi
8:20 AM30 °FChilly.5 mph93%30.36 "Hg0 mi
7:20 AM32 °FChilly.3 mph93%30.33 "Hg3 mi
6:20 AM34 °FChilly.3 mph93%30.33 "Hg4 mi
5:20 AM34 °FChilly.3 mph93%30.33 "Hg5 mi
4:20 AM36 °FChilly.3 mph87%30.33 "Hg5 mi
3:20 AM34 °FChilly.5 mph87%30.33 "HgN/A
2:20 AM36 °FChilly.2 mph81%30.33 "HgN/A
1:20 AM36 °FChilly.5 mph75%30.30 "HgN/A
12:20 AM37 °FChilly.6 mph75%30.30 "HgN/A
11:20 PM
Dec 25
37 °FChilly.3 mph81%30.30 "HgN/A
10:20 PM37 °FChilly.6 mph81%30.27 "HgN/A
Weather by CustomWeather, © 2014

See weather overviewHow to use our weather pages